Location: Melbourne
(37.8170°S, 144.9670°E)
Time: 23:36:25
(UTC+11:00)

ADEOS Rocket - Visible Passes

Search period start: 01 November 2014 00:00
Search period end: 11 November 2014 00:00
Orbit: 859 x 1307 km, 98.7° (Epoch: 31 October)

Date Brightness Start Highest point End Pass type
(mag) Time Alt. Az. Time Alt. Az. Time Alt. Az.
01 Nov 5.6 00:36:08 10° SSW 00:39:15 14° WSW 00:42:30 10° W visible
01 Nov 3.6 21:59:21 10° SSE 22:05:43 45° E 22:06:46 42° ENE visible
01 Nov 4.6 23:45:16 10° S 23:50:59 32° WSW 23:53:44 25° WNW visible
02 Nov 4.6 21:11:57 10° SE 21:16:35 19° E 21:17:29 19° ENE visible
02 Nov 3.4 22:55:45 10° S 23:02:24 72° WSW 23:04:28 49° NW visible
03 Nov 5.7 00:44:37 10° SW 00:46:56 12° WSW 00:49:19 10° WSW visible
03 Nov 3.5 22:06:58 10° SSE 22:13:35 52° E 22:15:11 45° NE visible
03 Nov 4.9 23:53:12 10° S 23:58:45 29° WSW 00:02:10 20° WNW visible
04 Nov 4.4 21:19:15 10° SE 21:24:31 23° E 21:25:55 21° ENE visible
04 Nov 3.7 23:03:33 10° S 23:10:13 63° WSW 23:12:54 40° NW visible
05 Nov 5.9 00:53:51 10° SW 00:54:35 10° WSW 00:55:20 10° WSW visible
05 Nov 3.4 22:14:39 10° SSE 22:21:27 61° ENE 22:23:37 45° NNE visible
06 Nov 5.1 00:01:11 10° SSW 00:06:29 25° WSW 00:10:36 15° WNW visible
06 Nov 4.3 21:26:40 10° SE 21:32:26 27° E 21:34:20 24° ENE visible
06 Nov 3.9 23:11:22 10° S 23:18:02 55° WSW 23:21:19 32° NW visible
07 Nov 3.3 22:22:21 10° SSE 22:29:19 71° ENE 22:32:03 42° N visible
08 Nov 5.3 00:09:12 10° SSW 00:14:14 22° WSW 00:19:01 12° WNW visible
08 Nov 4.1 21:34:09 10° SE 21:40:21 32° E 21:42:46 26° NE visible
08 Nov 4.2 23:19:14 10° S 23:25:51 48° WSW 23:29:45 26° NW visible
09 Nov 5.0 20:48:04 10° ESE 20:51:02 13° E 20:53:29 11° ENE visible
09 Nov 3.3 22:30:05 10° SSE 22:37:11 81° ENE 22:40:28 38° N visible
10 Nov 5.4 00:17:17 10° SSW 00:21:57 19° WSW 00:26:51 10° WNW visible
10 Nov 4.0 21:41:43 10° SSE 21:48:15 37° E 21:51:11 28° NE visible
10 Nov 4.4 23:27:07 10° S 23:33:39 42° WSW 23:38:10 21° NW visible
